一网星座-0396星 (ONEWEB-0396 )

导读

ONEWEB-0396是英国OneWeb星座的低轨通信卫星,于2021年12月27日发射入轨,属于OneWeb一期组网卫星。它重约147.5公斤,运行在1200公里近地轨道,搭载Ku/Ka波段天线,单星通信能力约7.5Gbps,支持宽带互联网接入。卫星具备霍尔推进系统,寿命末期会主动离轨,符合空间碎片减控标准,为全球偏远地区、航空航海等提供低延迟宽带连通服务。

Basic Information
目录编号:
50476
目录名称:
ONEWEB-0396
国际标识:
2021-132H
轨道中心:
EARTH
卫星名称:
一网星座-0396星
卫星全名:
一网星座-0396星 (ONEWEB-0396 )
卫星状态:
在轨 (已飞行1674 天)
发射日期:
2021-12-27 UTC
国别 :
英国 (GB)
星等 :
--
Orbit Information
数据来源 国际轨道数据 AOE轨道数据
星历时间 2026-07-27T15:20:31+0800
18小时前
查看轨道信息
2026-07-26T01:00:00+0800
2天前
查看轨道信息
半长轴 7567.879km 7567.888km
偏心率 0.0001698 0.0002174
轨道倾角 87.921° 87.921°
近地点辐角 99.328° 100.845°
升交点赤经 327.481° 327.798°
平近点角 260.804° 239.474°
近地点 1188.456km 1188.105km
远地点 1191.028km 1191.397km
周期 109.200分钟 109.200分钟
每日圈数 13.186863 13.18684
Detailed Information
平衡模式:
三轴稳定
覆盖范围:
全球
运营商:
一网卫星公司
运营商所在国:
英国
制造商(研发单位):
一网卫星公司
制造商所在国:
英国
使用方式:
暂无
Satellite Introduction
OneWeb卫星网络由648颗重约125公斤的微型卫星组成,运行在1200公里的轨道上。 每颗卫星都能够提供至少每秒8千兆位的吞吐量,以使用其高吞吐量的Ku频段有效载荷为家庭和移动平台提供互联网接入。该卫星仍在工作。
2D Orbit Map
3D Orbit Map
Orbit Altitude Analysis Chart
Orbit Inclination Analysis Chart
Orbit Comprehensive Analysis Chart
View Comprehensive Chart